Lapse_Rate
4.9 4.8 4.7 4.6 4.5 4.5 4.3 4.3 4.2 4.2 4.1 4.2 4.2 4.3 4.4 4.5 4.6 4.7 4.8 4.9 5.0 5.0 5.0 5.0 5.0 5.0 4.9 4.9 4.9 4.8 4.9 4.9 4.9
4.8 4.7 4.6 4.5 4.4 4.3 4.2 4.2 4.2 4.2 4.2 4.2 4.3 4.4 4.5 4.6 4.7 4.8 5.0 5.0 5.1 5.1 5.1 5.0 5.0 5.0 5.0 4.9 4.9 4.9 4.9 4.9 4.8
4.8 4.7 4.6 4.4 4.4 4.3 4.3 4.2 4.2 4.2 4.2 4.3 4.3 4.4 4.5 4.7 4.8 5.0 5.1 5.1 5.1 5.2 5.2 5.2 5.1 5.1 5.1 5.1 5.0 4.9 4.9 4.8 4.8
4.8 4.7 4.6 4.5 4.4 4.4 4.3 4.3 4.3 4.4 4.4 4.4 4.4 4.6 4.7 4.8 4.9 5.0 5.1 5.2 5.2 5.3 5.3 5.2 5.2 5.2 5.2 5.2 5.0 5.0 5.0 4.9 4.9
4.9 4.8 4.6 4.5 4.4 4.4 4.4 4.4 4.4 4.5 4.5 4.6 4.7 4.7 4.8 4.9 5.1 5.2 5.2 5.3 5.3 5.3 5.3 5.3 5.3 5.3 5.2 5.2 5.1 5.1 5.0 4.9 4.9
4.8 4.7 4.7 4.6 4.6 4.5 4.5 4.6 4.6 4.6 4.6 4.7 4.8 5.0 5.0 5.1 5.1 5.2 5.3 5.4 5.4 5.5 5.4 5.3 5.3 5.3 5.4 5.3 5.3 5.2 5.0 4.9 4.9
4.9 4.9 4.9 4.8 4.8 4.7 4.7 4.7 4.8 4.8 4.9 5.0 5.0 5.1 5.1 5.2 5.2 5.3 5.3 5.4 5.4 5.4 5.4 5.3 5.3 5.3 5.3 5.3 5.2 5.2 5.1 4.9 4.8
5.1 5.2 5.1 5.1 5.0 4.9 4.9 4.9 5.0 5.1 5.1 5.1 5.2 5.1 5.1 5.2 5.2 5.3 5.3 5.4 5.4 5.4 5.3 5.3 5.3 5.2 5.2 5.1 5.0 5.0 4.9 4.8 4.8
5.2 5.3 5.3 5.3 5.3 5.2 5.2 5.2 5.2 5.2 5.3 5.2 5.2 5.2 5.2 5.2 5.2 5.2 5.3 5.3 5.4 5.4 5.4 5.4 5.3 5.2 4.6 4.8 4.8 4.9 4.9 4.8 4.8
5.4 5.4 5.4 5.4 5.4 5.5 5.4 5.4 5.3 5.3 5.2 5.3 5.3 5.3 5.3 5.2 5.2 5.3 5.3 5.4 5.4 5.4 5.5 5.4 5.4 5.2 4.6 4.7 4.6 4.7 4.7 4.8 4.9
5.5 5.4 5.6 5.5 5.6 5.7 5.7 5.6 5.5 5.5 5.4 5.4 5.4 5.4 5.4 5.4 5.4 5.5 5.5 5.6 5.7 5.7 5.7 5.8 5.8 5.5 5.1 5.4 5.5 5.1 5.3 5.2 5.0
5.5 5.4 5.6 5.6 5.7 5.8 5.8 5.8 5.7 5.6 5.6 5.6 5.5 5.5 5.4 5.4 5.5 5.7 5.7 5.8 5.9 5.9 6.0 6.0 5.9 5.6 5.5 5.5 5.7 5.6 5.4 5.3 5.3
5.5 5.6 5.6 5.6 5.6 5.7 5.8 5.8 5.8 5.8 5.8 5.8 5.7 5.6 5.5 5.6 5.6 5.8 5.9 6.0 6.1 6.2 6.2 6.2 6.2 6.1 5.8 5.7 5.7 5.6 5.5 5.5 5.4
5.6 5.6 5.6 5.7 5.7 5.7 5.9 6.0 5.9 5.9 5.9 5.9 5.8 5.8 5.7 5.7 5.8 5.9 5.9 6.0 6.0 6.1 6.1 6.0 6.0 6.0 5.9 5.8 5.8 5.6 5.5 5.5 5.4
5.7 5.7 5.7 5.8 5.7 5.8 6.0 6.0 6.0 6.0 6.0 6.0 5.8 5.9 5.9 6.0 6.1 6.1 6.1 6.1 6.1 6.2 6.1 6.2 6.1 6.0 5.9 5.9 5.8 5.7 5.5 5.6 5.8
6.0 5.9 6.0 6.2 6.0 5.8 5.9 6.0 6.0 5.9 6.0 6.1 6.1 6.1 6.0 5.9 6.0 6.1 6.1 6.1 6.1 6.2 6.2 6.1 6.1 5.8 5.8 5.9 5.8 5.6 5.8 5.3 5.8
5.9 6.0 6.0 5.8 6.1 5.9 6.0 5.8 5.8 5.9 5.9 6.2 6.2 6.5 6.3 6.2 6.2 6.3 6.3 6.2 6.1 6.0 6.1 6.0 6.0 5.8 5.6 5.6 5.6 5.7 5.7 5.9 5.7
5.5 5.6 5.5 5.4 5.6 5.7 5.5 5.6 5.9 5.9 5.8 6.0 6.1 6.4 6.5 6.5 6.7 6.8 6.7 6.6 6.5 6.3 6.2 5.9 5.8 5.7 5.6 5.6 5.5 5.4 5.9 5.7 5.8
5.3 5.4 5.2 5.2 5.0 5.0 4.8 5.0 5.3 5.5 5.7 6.0 6.0 5.9 6.0 6.2 6.3 6.4 6.4 6.3 6.2 6.3 6.2 6.0 5.7 5.7 5.6 5.4 5.3 5.3 5.4 5.6 5.6
5.4 5.1 5.1 5.2 5.0 4.7 4.8 4.9 5.0 5.0 5.3 5.9 6.0 6.0 6.0 5.8 5.6 5.7 6.0 6.1 6.2 6.1 6.1 6.0 6.0 5.8 5.7 5.6 5.4 5.2 5.3 5.6 5.7
Wind_Speed
18 17 15 16 16 16 15 15 14 15 13 13 13 12 10 9 9 10 10 11 12 12 12 11 10 10 12 14 13 12 12 13 12
16 15 13 14 15 15 14 13 13 12 11 11 11 10 9 8 8 8 9 10 11 11 11 11 10 9 9 10 10 10 10 10 10
15 14 14 13 14 13 13 11 11 10 10 8 9 8 7 6 7 6 7 8 9 9 9 9 9 9 8 8 8 8 8 8 8
14 13 12 12 12 12 11 10 9 9 8 8 7 6 5 4 4 4 4 4 7 7 7 7 8 8 7 7 7 7 7 7 7
13 12 12 11 10 10 10 9 8 8 6 5 5 5 3 1 0 1 1 1 4 4 5 5 5 5 5 6 6 7 7 7 7
12 10 11 10 9 7 7 6 6 5 5 4 3 2 1 1 1 2 2 2 1 1 1 1 1 2 3 4 5 5 5 5 5
10 10 9 9 8 6 5 4 3 3 2 2 2 1 0 1 2 2 4 5 4 2 3 3 3 2 1 1 2 3 3 3 4
8 8 7 7 6 4 3 2 1 1 0 0 0 1 2 2 2 3 5 7 7 5 5 7 8 6 3 3 2 2 2 2 2
7 6 6 5 5 5 3 2 2 2 2 2 2 2 3 3 3 5 6 7 9 9 8 9 9 9 6 6 6 5 5 5 4
7 6 5 4 4 4 4 4 3 3 3 3 4 4 4 4 4 5 8 9 10 11 11 11 11 10 7 4 2 5 9 9 8
7 6 6 5 6 4 4 4 4 4 4 4 4 5 4 5 6 6 7 10 11 10 10 11 12 10 5 2 5 5 3 5 6
8 7 6 7 6 5 4 4 4 3 3 4 4 5 6 6 7 7 7 6 7 9 8 10 13 8 2 5 7 6 6 7 9
10 6 7 8 7 6 5 3 3 3 3 3 3 4 6 9 8 6 5 5 6 5 8 10 10 7 5 7 9 6 6 6 7
13 9 9 8 7 6 4 4 4 3 4 4 4 4 4 6 6 6 7 7 7 7 6 6 6 7 8 10 8 6 5 5 6
13 10 10 9 5 5 5 5 4 3 4 4 4 4 4 5 4 6 7 7 7 7 6 3 5 7 11 10 8 7 6 6 6
14 10 8 9 8 8 7 5 6 4 2 3 3 3 4 4 2 3 4 4 5 3 1 4 8 11 15 12 8 7 7 6 7
11 9 6 8 6 6 7 5 3 2 1 1 1 3 2 2 3 3 3 4 5 5 5 7 8 8 8 9 10 8 7 6 6
10 7 4 4 2 0 2 3 4 2 1 0 2 3 2 2 1 2 3 3 3 4 5 6 6 7 7 6 7 7 6 6 7
5 8 9 7 4 5 4 3 2 2 2 0 1 2 2 2 3 1 2 3 2 2 2 4 5 5 6 7 6 6 5 5 7
7 10 10 5 4 4 5 4 0 1 2 2 1 2 1 2 5 5 1 0 2 2 1 1 3 4 4 4 5 6 6 6 5
Wind_Direction
130 127 124 123 124 124 117 106 99 111 108 103 102 99 94 85 80 78 77 76 76 75 74 71 66 56 43 54 60 61 59 58 58
126 128 122 130 131 123 117 107 101 103 112 107 107 104 97 89 83 78 75 75 74 74 72 71 69 63 53 47 46 47 41 41 34
127 129 131 131 131 127 124 112 105 100 98 108 112 108 103 91 84 79 76 73 75 75 75 73 72 69 65 58 51 47 43 37 29
129 130 131 129 127 126 120 117 108 102 100 101 107 120 114 104 93 87 85 56 77 78 77 73 70 67 64 61 59 51 47 42 36
135 131 132 127 123 126 125 125 120 115 109 108 111 118 118 95 147 147 119 40 80 78 75 75 75 73 68 63 57 52 49 44 39
150 139 133 129 126 126 124 123 118 117 113 108 117 143 99 337 293 235 240 260 217 126 108 93 90 89 73 65 58 52 50 46 39
156 149 146 140 139 138 129 119 111 108 116 111 98 151 269 303 312 263 250 261 263 242 228 246 253 245 232 36 37 31 31 40 34
159 156 161 154 154 154 154 153 160 156 226 134 161 269 276 298 290 282 272 269 266 270 252 249 255 254 252 265 261 275 322 331 0
168 171 173 173 173 176 186 196 192 207 227 265 272 267 272 276 281 281 280 272 263 260 262 251 255 263 252 256 243 248 253 263 256
175 178 182 193 187 200 201 200 213 238 255 262 263 264 265 269 267 271 276 274 272 265 268 274 271 275 294 301 301 261 256 251 252
187 190 195 203 200 196 207 221 226 235 242 259 256 264 262 260 257 259 270 270 268 263 265 264 272 288 288 84 101 93 63 24 330
197 202 204 210 205 204 206 229 247 249 246 261 265 268 266 267 270 271 263 285 276 272 255 258 267 273 257 124 126 82 66 37 16
206 210 220 208 208 205 206 210 227 242 241 260 267 274 280 277 265 261 274 284 277 265 260 270 272 238 184 132 125 104 73 51 33
215 216 223 205 205 205 198 198 213 236 243 249 256 263 268 282 299 309 304 293 283 275 273 274 268 201 165 137 127 115 89 51 24
221 219 218 203 198 198 200 205 211 233 256 265 275 281 277 286 308 300 297 298 289 269 258 247 179 174 145 133 128 114 74 41 12
219 225 209 197 204 205 198 194 214 236 263 285 285 286 292 311 357 8 350 5 354 358 107 136 131 100 87 96 95 86 72 47 21
215 205 210 204 207 206 199 203 156 138 60 298 290 300 290 45 32 12 7 22 40 59 81 108 108 100 88 87 87 72 57 39 19
198 171 168 176 138 121 26 8 322 197 136 52 277 283 265 322 72 32 24 39 65 75 90 96 99 103 100 87 73 70 51 32 20
177 151 145 149 134 87 85 58 8 335 259 223 325 279 302 292 297 171 37 31 38 59 79 112 108 100 88 79 69 52 43 35 13
124 146 146 131 116 118 118 92 69 275 205 187 190 233 246 263 249 286 294 329 12 25 53 129 112 95 93 70 47 60 44 41 28